Flag for Germany Weather past 2 weeks in Mühlhausen/Thüringen, Thuringia, Germany

Now
69 °F

Passing clouds.


Feels Like: 69 °F
Forecast: 59 / 73 °F
Wind: 3 mph from Southwest

Location: Erfurt-Bindersleben

Current Time: Aug 31, 2015 at 3:17:30 AM

Latest Report: Aug 31, 2015 at 2:00 AM


Visibility: 31 mi

Pressure: 30.01 "Hg

Humidity: 78%

Dew point: 62 °F

Location of Mühlhausen/ThüringenLocation

Historic Weather in Mühlhausen/Thüringen — Graph

°F

Mühlhausen/Thüringen temperature yesterday

Maximum temperature yesterday: 91 °F (at 4:00 PM)
Minimum temperature yesterday: 61 °F (at 7:00 AM)
Average temperature yesterday: 75 °F

Past Weeks' High & Low Weather Summary

 TemperatureHumidityPressure
High91 °F (Aug 30, 4:00 PM)100% (Aug 21, 3:00 AM)30.33 "Hg (Aug 21, 3:00 AM)
Low48 °F (Aug 21, 7:00 AM)31% (Aug 30, 5:00 PM)29.67 "Hg (Aug 24, 6:00 PM)
Average64 °F76%30.01 "Hg
* Reported Aug 16 2:00 AM — Aug 31 2:00 AM, Mühlhausen/Thüringen, Weather by CustomWeather, © 2015

Note: Actual official high and low records may vary slightly from our data, if they occured in-between our weather recording intervals... More about our weather records

Advertising

Mühlhausen/Thüringen weather history for previous 24 hours

 ConditionsComfort  
Time TempWeatherWind HumidityBarometerVisibility
2:00 AM
Mon, Aug 31
69 °FPassing clouds.3 mph78%30.01 "Hg31 mi
1:00 AM71 °FPassing clouds.2 mph73%30.00 "Hg37 mi
11:00 PM
Sun, Aug 30
73 °FPassing clouds.3 mph70%30.02 "Hg37 mi
10:00 PM77 °FPassing clouds.2 mph60%30.01 "Hg37 mi
9:00 PM82 °FPassing clouds.3 mph50%30.00 "Hg37 mi
8:00 PM83 °FPartly sunny.2 mph52%29.99 "Hg47 mi
7:00 PM86 °FScattered clouds.3 mph47%29.98 "Hg47 mi
6:00 PM89 °FPassing clouds.6 mph38%29.97 "Hg47 mi
5:00 PM90 °FPassing clouds.6 mph31%29.97 "Hg47 mi
4:00 PM91 °FPassing clouds.3 mph36%29.98 "Hg47 mi
3:00 PM88 °FPassing clouds.1 mph47%30.00 "Hg43 mi
2:00 PM84 °FPassing clouds.3 mph58%30.02 "Hg31 mi
1:00 PM80 °FPassing clouds.2 mph65%30.05 "Hg19 mi
12:00 PM77 °FPassing clouds.2 mph71%30.07 "Hg16 mi
11:00 AM74 °FPassing clouds.1 mph75%30.08 "Hg16 mi
10:00 AM68 °FPassing clouds.2 mph88%30.10 "Hg7 mi
9:00 AM66 °FScattered clouds.1 mph92%30.11 "Hg6 mi
8:00 AM63 °FFog.2 mph99%30.10 "Hg4 mi
7:00 AM61 °FFog.1 mph94%30.11 "Hg4 mi
5:00 AM63 °FPassing clouds.2 mph94%30.11 "Hg11 mi
4:00 AM65 °FPassing clouds.1 mph90%30.12 "Hg12 mi
3:00 AM65 °FPassing clouds.2 mph89%30.13 "Hg14 mi
Weather by CustomWeather, © 2015

See weather overviewHow to use our weather pages